Wind_Speed
9 8 8 8 8 8 7 7 8 7 6 5 4 4 4 2 1 1 2 3 3 4 5 5 5 6 6 7 8 8 8 8 9 9 10 10 11 11 11 11 11 11 11 11 10 10 10 10 9
10 10 10 10 9 8 7 7 7 6 6 5 4 4 4 2 1 1 2 2 3 4 4 5 5 6 7 7 8 8 8 9 9 10 10 11 11 11 11 11 11 11 11 11 11 11 10 10 10
12 12 12 11 9 8 7 6 7 6 6 5 4 4 4 2 1 1 1 2 3 4 4 5 5 6 7 7 7 8 9 10 10 11 11 11 11 11 11 12 12 12 12 12 11 11 11 10 10
13 13 13 12 10 9 8 8 8 7 6 5 5 4 3 2 1 1 1 2 3 4 5 5 5 6 6 7 7 8 9 10 10 11 11 11 11 11 11 12 12 12 12 12 11 11 10 10 10
14 14 13 12 11 10 9 9 8 7 6 5 5 4 3 2 1 1 2 2 3 5 5 5 5 5 6 6 7 9 9 10 10 10 11 11 11 11 11 12 12 12 12 12 11 11 10 10 10
15 15 14 13 12 11 10 9 7 8 7 6 5 4 3 2 1 1 2 3 4 5 5 5 5 5 6 7 8 9 10 11 10 11 11 11 11 11 12 12 12 13 13 12 12 11 11 10 10
16 15 14 14 12 11 11 9 8 7 8 6 5 4 3 2 1 2 2 3 4 5 5 5 5 5 6 8 9 10 11 11 10 10 11 11 11 11 12 12 13 13 13 13 12 12 11 11 10
17 16 15 14 13 12 11 10 9 8 8 6 5 4 3 2 2 3 3 3 4 5 4 5 5 6 7 8 9 10 11 11 10 11 11 11 11 12 12 13 13 13 13 13 12 12 12 11 10
17 16 15 14 13 13 12 11 9 9 8 7 6 4 3 2 2 3 3 3 4 4 5 5 5 6 7 8 9 10 11 10 11 11 11 11 12 12 12 13 13 13 13 14 13 12 12 11 10
18 17 15 14 13 12 11 11 9 9 8 7 7 6 4 3 2 1 1 2 3 4 5 5 6 7 8 9 9 10 10 11 11 11 12 12 12 13 13 13 13 14 14 14 13 13 12 11 10
18 17 15 13 13 13 12 11 10 9 9 8 7 6 5 3 2 2 2 3 4 4 5 5 6 7 8 9 10 10 11 11 12 12 12 12 12 13 13 14 14 14 15 14 14 13 12 11 10
19 17 14 13 14 13 12 12 11 10 9 8 7 5 4 3 3 2 3 3 4 4 5 5 7 8 8 9 9 10 11 11 12 12 12 12 13 13 14 14 15 15 16 15 15 14 12 10 9
19 18 16 15 15 14 13 12 11 11 9 8 6 5 4 4 3 3 3 3 4 4 5 6 7 7 7 8 8 9 10 11 12 12 12 13 13 13 14 14 15 16 16 15 15 14 12 10 9
20 18 17 17 15 15 13 12 11 10 9 7 6 5 4 3 3 3 3 3 3 4 4 5 6 6 7 7 8 9 10 11 12 12 12 12 13 13 14 15 15 16 16 15 15 14 13 11 9
21 20 18 18 17 16 14 12 11 9 9 8 7 6 5 4 3 3 3 3 3 3 4 5 6 6 6 7 8 9 10 11 11 12 12 12 12 13 14 15 16 16 17 16 15 14 13 12 9
22 21 19 18 17 17 16 13 12 10 9 9 8 7 6 5 4 4 3 3 2 3 4 5 6 6 6 7 8 9 10 10 11 11 12 12 12 13 14 15 17 17 17 16 15 14 13 12 10
23 21 19 19 17 17 16 13 12 10 10 9 9 8 7 6 5 4 3 3 3 3 4 5 5 6 6 6 7 8 9 10 11 11 12 12 13 13 14 16 17 17 17 17 15 14 13 12 10
23 21 20 19 18 17 16 14 13 11 11 11 10 9 7 6 6 5 4 4 3 3 3 4 4 5 5 6 7 8 9 10 10 11 12 13 13 14 15 16 16 17 17 17 16 15 14 13 11
22 21 21 20 18 17 16 15 14 12 12 11 10 9 8 7 6 5 4 4 4 3 3 4 4 4 5 6 6 7 8 9 10 11 13 14 14 14 15 16 17 17 17 18 17 16 15 14 12
23 22 21 21 19 18 16 15 14 13 11 11 9 8 8 7 6 5 4 4 3 3 3 3 3 3 4 5 6 7 8 9 10 11 12 13 14 15 15 16 17 17 18 18 18 17 16 15 13
22 22 22 21 20 19 17 17 15 13 12 10 9 8 8 7 5 5 4 4 3 2 2 2 2 2 3 4 5 6 8 9 10 11 12 13 14 15 15 16 16 17 18 18 18 17 17 16 14
22 21 21 21 20 18 17 17 16 14 12 11 9 8 7 7 6 5 5 4 3 2 2 1 1 2 3 4 5 6 7 8 10 11 11 13 13 14 15 15 16 17 18 18 18 17 17 17 15
22 21 22 21 19 19 18 17 16 14 13 11 10 8 7 7 7 6 5 5 3 2 1 0 1 2 3 4 5 6 7 8 9 10 11 12 13 14 15 15 16 16 17 17 18 18 17 17 16
23 24 22 22 20 19 18 17 16 14 12 11 10 9 9 8 7 7 6 5 4 2 2 1 1 2 3 4 5 5 7 8 9 10 11 12 13 13 14 15 16 16 16 17 17 18 17 17 16
23 24 23 22 21 19 18 17 15 14 13 12 11 10 9 8 7 7 7 6 4 3 2 1 0 1 3 4 4 5 6 7 8 10 10 12 13 13 14 15 15 16 17 17 17 17 16 16 16
21 23 22 21 19 18 17 17 15 13 13 12 11 10 9 8 7 7 7 6 5 4 3 2 1 1 2 3 4 5 6 7 8 9 10 11 12 13 14 15 16 16 17 17 17 17 16 16 16
20 21 21 19 18 18 17 16 14 14 13 12 11 11 9 8 8 8 7 6 6 5 4 3 1 0 1 2 3 5 6 7 7 9 10 11 12 13 14 15 16 17 17 17 16 16 16 16 16
20 20 20 19 17 16 15 15 13 13 13 12 11 10 9 9 8 7 7 7 6 5 4 3 2 1 2 2 3 5 5 7 7 9 10 11 12 14 15 15 16 17 17 17 16 16 16 17 17
19 20 19 18 17 14 13 12 12 13 13 12 11 11 10 9 8 8 8 7 7 6 5 4 3 3 3 3 4 5 6 7 8 9 10 11 13 14 15 16 16 17 17 17 17 16 16 16 17
18 19 18 17 15 14 13 13 13 13 12 12 12 11 10 10 9 9 8 8 7 7 6 6 5 4 4 5 5 6 7 8 10 10 11 12 14 15 16 17 17 17 17 17 17 16 16 17 17
Wind_Direction
221 228 226 231 233 229 221 205 195 200 201 192 190 193 193 181 163 37 30 29 24 9 356 354 354 355 356 355 352 349 349 350 351 350 349 347 343 341 339 338 336 333 329 325 319 315 310 304 298
222 227 229 232 232 223 208 197 194 201 192 183 180 183 183 170 155 35 21 10 7 358 349 345 347 347 348 351 351 349 349 350 348 346 346 344 342 340 339 337 335 333 329 324 318 316 312 307 300
223 226 226 228 230 213 198 191 194 188 183 184 193 185 179 179 222 329 359 360 355 352 350 343 342 343 344 350 351 350 349 347 344 345 346 343 341 341 339 336 334 331 329 325 320 315 312 310 305
223 225 227 226 226 215 207 206 205 191 188 195 199 197 188 197 226 277 337 353 345 343 341 338 340 340 343 347 348 348 346 344 343 344 345 344 342 341 338 335 333 333 331 329 325 319 314 310 304
220 220 223 222 220 215 211 210 199 186 190 193 196 200 189 198 221 277 318 326 329 333 332 332 338 340 342 343 343 344 344 343 341 341 343 343 341 340 338 335 333 334 333 331 328 322 316 313 305
220 220 221 219 218 218 213 203 193 189 184 181 187 194 188 193 214 277 306 317 324 330 332 337 340 339 339 342 343 343 343 342 340 341 343 343 341 339 338 336 334 333 332 329 327 324 319 312 305
219 218 218 218 216 215 213 207 202 188 175 173 180 190 190 196 247 283 303 317 322 323 325 333 335 333 336 340 341 341 342 341 340 342 344 346 344 342 340 338 335 334 333 330 327 325 320 311 303
219 218 217 214 214 215 214 208 205 197 188 188 182 188 197 219 262 295 302 311 316 319 323 330 333 334 337 338 338 340 341 343 341 342 344 345 344 345 343 340 338 337 335 332 328 324 320 314 306
219 216 213 212 210 208 207 200 201 200 201 197 194 200 206 218 262 304 312 312 319 324 330 334 336 334 335 335 337 340 342 342 342 343 344 344 344 345 345 344 342 340 338 335 331 326 321 316 308
213 214 213 212 205 204 204 196 197 198 199 197 198 202 208 215 253 298 309 324 332 331 332 331 332 334 337 337 340 341 344 345 345 344 344 344 345 347 347 347 346 345 342 338 333 330 325 318 311
210 211 214 208 205 204 199 194 193 196 194 193 194 201 209 217 242 271 306 323 328 328 330 331 334 337 340 341 344 345 345 346 346 345 345 346 346 347 347 348 347 347 345 342 338 334 329 322 313
211 212 213 208 205 197 196 194 189 190 189 191 192 204 210 219 236 267 301 314 320 323 331 332 332 339 341 343 344 345 346 346 346 346 346 346 347 347 347 347 347 347 346 344 342 339 335 329 323
210 211 208 205 202 194 191 189 191 189 187 189 196 206 213 223 234 254 278 296 313 322 327 330 333 337 339 343 346 346 346 348 349 348 348 349 350 350 349 349 349 348 347 347 347 345 341 335 327
207 207 206 203 197 192 189 189 189 188 184 191 199 203 209 216 231 253 271 286 300 315 325 330 333 335 338 345 348 349 348 349 349 349 349 350 353 354 355 355 354 353 353 352 351 350 346 343 337
206 207 202 200 196 192 192 192 192 192 191 194 201 204 204 213 233 256 271 277 292 311 325 331 336 338 341 346 349 351 351 351 351 352 354 355 356 358 360 1 359 359 358 358 357 356 355 353 348
205 206 204 200 196 193 192 187 193 194 198 200 207 211 211 216 226 242 252 270 290 311 324 329 336 342 344 348 353 354 354 355 356 357 359 0 0 1 2 4 3 3 2 3 2 1 1 360 360
202 203 204 198 195 192 190 189 195 199 201 207 211 211 213 217 225 239 247 260 283 301 314 322 335 344 348 353 358 358 359 359 1 3 4 5 5 4 5 6 6 7 8 7 6 7 6 6 6
200 201 200 195 192 193 193 196 200 199 202 207 210 208 210 219 224 232 243 256 267 286 307 319 331 341 349 355 2 3 2 4 7 9 9 8 8 8 8 8 9 11 13 13 12 11 11 11 11
198 198 197 196 196 197 197 200 202 202 205 206 209 208 209 216 222 225 233 243 256 275 297 313 327 343 352 359 5 6 8 10 11 12 11 9 9 10 10 10 11 13 15 16 16 15 15 15 16
198 197 197 197 199 198 199 200 202 205 208 206 208 208 212 216 218 219 220 230 246 267 290 306 332 353 357 1 7 9 11 13 13 12 11 11 12 11 11 12 14 15 16 17 17 17 17 16 16
198 198 198 201 201 202 202 202 204 207 209 208 208 213 215 213 214 210 213 219 236 259 276 300 336 356 360 6 11 12 12 12 12 12 11 12 13 13 13 14 16 16 17 17 17 17 18 17 18
199 198 201 200 203 203 204 205 207 208 207 208 211 213 210 206 208 210 213 221 227 237 246 284 343 5 9 14 14 14 13 12 12 13 14 15 15 14 14 15 17 17 18 19 19 19 18 20 20
200 201 201 201 203 206 204 206 205 206 209 213 213 212 209 207 205 204 209 213 213 211 212 251 5 16 17 19 20 19 17 16 17 18 17 17 16 15 15 16 17 17 17 18 19 19 19 21 21
200 199 199 199 202 205 204 205 205 208 211 213 213 210 209 207 202 203 203 201 201 197 203 226 20 31 31 28 24 21 18 15 16 16 15 15 15 14 13 13 15 15 16 17 18 18 20 21 21
198 198 196 198 203 206 207 208 207 208 211 213 213 208 207 203 200 201 199 194 193 190 193 195 127 47 38 30 23 20 16 14 14 14 13 12 10 9 7 7 8 10 11 13 15 16 19 20 20
196 197 198 201 206 209 209 209 209 210 211 212 210 206 203 199 200 199 197 193 191 190 187 181 150 73 36 23 18 17 15 13 11 9 9 8 7 6 5 4 5 5 6 8 10 12 14 15 16
196 197 202 207 212 216 213 211 212 209 207 209 206 205 204 202 199 196 194 193 192 192 192 188 188 310 2 4 8 9 7 7 6 5 4 3 3 2 2 3 2 3 4 5 6 5 6 7 9
198 200 202 206 212 214 213 213 209 207 207 209 208 208 207 206 202 199 196 196 198 201 206 211 226 271 317 332 343 350 353 355 354 354 355 355 355 356 356 356 356 357 358 359 359 359 360 1 2
196 198 202 208 212 214 209 208 211 208 210 212 211 209 208 207 207 204 201 203 207 212 220 231 244 263 288 306 320 329 336 341 344 345 346 347 349 350 350 350 349 349 349 350 350 349 350 352 352
199 202 208 213 215 218 214 209 214 210 211 215 215 212 210 210 210 209 208 211 216 222 232 241 250 261 277 292 304 313 323 330 334 336 339 340 341 341 342 343 343 343 343 343 343 341 340 343 343
Height
5873 5874 5876 5877 5878 5878 5878 5880 5880 5881 5882 5883 5884 5885 5886 5887 5888 5891 5889 5888 5888 5887 5887 5887 5886 5885 5884 5883 5882 5880 5879 5878 5877 5875 5874 5873 5872 5871 5869 5868 5867 5866 5865 5864 5863 5863 5862 5862 5861
5872 5873 5875 5876 5877 5877 5879 5879 5880 5881 5883 5883 5884 5885 5886 5886 5887 5888 5888 5888 5887 5887 5887 5887 5886 5885 5884 5883 5882 5880 5879 5878 5877 5875 5874 5872 5871 5870 5869 5868 5866 5865 5864 5863 5862 5861 5861 5860 5859
5871 5872 5874 5875 5876 5878 5879 5879 5880 5881 5882 5884 5884 5885 5886 5886 5887 5888 5888 5888 5888 5887 5887 5886 5886 5885 5884 5883 5882 5880 5879 5878 5876 5875 5873 5872 5871 5869 5868 5867 5865 5864 5862 5861 5860 5859 5859 5858 5858
5870 5872 5874 5874 5875 5877 5879 5879 5880 5881 5883 5884 5885 5885 5886 5887 5887 5888 5888 5888 5888 5888 5887 5886 5886 5885 5884 5883 5882 5880 5879 5878 5876 5875 5873 5871 5870 5868 5867 5866 5864 5863 5861 5860 5859 5858 5857 5856 5856
5868 5871 5873 5874 5875 5877 5878 5879 5880 5881 5882 5884 5885 5885 5886 5887 5887 5888 5888 5888 5888 5887 5887 5886 5885 5885 5884 5883 5882 5880 5879 5877 5876 5874 5872 5871 5869 5868 5866 5865 5863 5862 5860 5858 5857 5856 5855 5854 5853
5868 5870 5872 5873 5875 5877 5878 5879 5880 5882 5882 5884 5885 5886 5886 5887 5887 5888 5888 5888 5888 5887 5887 5886 5885 5884 5884 5883 5881 5880 5878 5877 5875 5874 5872 5870 5869 5867 5865 5864 5862 5860 5858 5857 5855 5854 5853 5852 5851
5866 5868 5870 5872 5874 5876 5878 5879 5880 5881 5883 5884 5885 5886 5886 5887 5887 5888 5888 5888 5887 5887 5886 5886 5885 5884 5883 5882 5881 5880 5878 5876 5875 5873 5872 5870 5868 5866 5865 5863 5861 5859 5857 5855 5853 5852 5851 5849 5849
5863 5867 5868 5871 5873 5875 5876 5878 5880 5881 5883 5884 5885 5886 5886 5887 5887 5887 5888 5888 5887 5886 5886 5885 5885 5884 5883 5882 5881 5879 5878 5876 5874 5873 5871 5869 5868 5866 5864 5862 5860 5857 5855 5854 5852 5850 5848 5847 5846
5862 5866 5867 5869 5872 5874 5875 5877 5879 5881 5882 5883 5884 5886 5887 5887 5887 5887 5887 5887 5887 5886 5885 5885 5884 5884 5883 5882 5880 5879 5877 5876 5874 5872 5871 5869 5867 5865 5863 5861 5858 5856 5854 5852 5850 5848 5846 5845 5844
5860 5863 5866 5869 5871 5873 5875 5876 5879 5880 5881 5883 5884 5885 5886 5886 5887 5887 5887 5887 5886 5886 5885 5885 5884 5883 5882 5881 5880 5879 5877 5875 5874 5872 5870 5868 5866 5864 5862 5860 5857 5855 5853 5850 5848 5846 5844 5842 5841
5858 5861 5864 5866 5869 5872 5874 5876 5878 5879 5881 5882 5884 5885 5885 5886 5886 5887 5886 5886 5886 5885 5885 5885 5884 5883 5882 5881 5880 5878 5877 5875 5873 5872 5870 5868 5866 5864 5861 5859 5856 5854 5851 5849 5846 5844 5842 5840 5839
5857 5860 5862 5865 5868 5870 5873 5875 5877 5879 5880 5882 5883 5884 5885 5885 5886 5886 5886 5885 5885 5885 5885 5884 5884 5883 5882 5881 5880 5878 5877 5875 5873 5871 5869 5867 5865 5863 5861 5858 5856 5853 5850 5847 5845 5842 5840 5838 5837
5855 5858 5861 5864 5867 5869 5872 5874 5876 5878 5879 5881 5882 5883 5884 5885 5885 5885 5885 5885 5885 5885 5885 5884 5884 5883 5882 5881 5880 5878 5876 5875 5873 5871 5869 5867 5865 5863 5860 5857 5855 5852 5849 5846 5843 5840 5838 5836 5835
5853 5856 5859 5862 5866 5868 5871 5874 5876 5877 5879 5880 5882 5883 5883 5884 5884 5885 5885 5885 5885 5885 5884 5884 5884 5883 5882 5881 5880 5878 5876 5874 5873 5871 5869 5867 5864 5862 5860 5857 5854 5851 5848 5845 5842 5839 5837 5835 5833
5851 5855 5858 5861 5864 5867 5870 5873 5875 5877 5878 5880 5881 5882 5883 5883 5884 5884 5885 5885 5885 5885 5884 5884 5883 5883 5882 5881 5879 5878 5876 5874 5873 5871 5869 5866 5864 5862 5859 5857 5854 5850 5847 5844 5841 5838 5836 5834 5832
5849 5853 5856 5860 5863 5866 5870 5872 5874 5876 5878 5879 5880 5881 5882 5883 5883 5884 5884 5884 5884 5884 5884 5884 5883 5882 5881 5880 5879 5878 5876 5874 5872 5870 5868 5866 5864 5862 5859 5857 5854 5850 5847 5844 5841 5838 5835 5833 5831
5847 5851 5855 5859 5861 5865 5868 5871 5873 5875 5877 5879 5880 5881 5882 5882 5883 5883 5884 5884 5884 5884 5884 5883 5883 5882 5881 5880 5879 5877 5876 5874 5872 5870 5868 5866 5864 5862 5859 5857 5854 5850 5847 5844 5841 5838 5836 5833 5831
5846 5850 5854 5857 5860 5863 5866 5869 5872 5874 5876 5878 5879 5880 5880 5881 5882 5882 5883 5883 5883 5883 5883 5883 5882 5882 5881 5880 5878 5877 5876 5874 5872 5871 5868 5866 5864 5862 5859 5857 5854 5851 5848 5845 5841 5839 5836 5834 5832
5844 5848 5852 5856 5859 5862 5865 5868 5871 5873 5875 5876 5877 5878 5879 5880 5881 5881 5882 5882 5883 5883 5883 5882 5882 5881 5880 5880 5878 5877 5876 5875 5873 5871 5869 5867 5864 5862 5860 5857 5854 5851 5848 5845 5842 5840 5837 5834 5832
5843 5847 5851 5854 5858 5861 5864 5867 5870 5872 5873 5875 5876 5878 5878 5879 5880 5881 5881 5882 5882 5882 5882 5882 5881 5881 5880 5879 5878 5878 5876 5875 5873 5871 5869 5867 5865 5862 5860 5858 5855 5852 5849 5846 5844 5841 5838 5835 5833
5841 5846 5849 5853 5856 5859 5863 5866 5868 5870 5872 5874 5875 5876 5877 5878 5879 5880 5880 5881 5881 5881 5882 5881 5881 5881 5880 5879 5878 5877 5876 5875 5874 5872 5870 5868 5865 5863 5861 5858 5856 5853 5850 5848 5845 5842 5839 5837 5834
5840 5844 5848 5852 5855 5858 5862 5864 5867 5869 5871 5872 5874 5875 5876 5877 5878 5879 5879 5880 5881 5881 5881 5881 5880 5880 5880 5879 5878 5877 5876 5875 5874 5872 5870 5868 5866 5864 5862 5859 5857 5854 5851 5849 5846 5843 5841 5838 5836
5839 5843 5847 5850 5854 5857 5860 5863 5866 5867 5870 5871 5873 5874 5875 5876 5877 5878 5878 5879 5880 5880 5880 5880 5880 5880 5879 5879 5878 5877 5877 5875 5874 5873 5871 5869 5867 5864 5862 5860 5857 5855 5852 5850 5847 5845 5842 5839 5837
5837 5842 5845 5848 5852 5855 5858 5861 5864 5866 5869 5870 5872 5873 5874 5875 5876 5877 5878 5878 5879 5879 5880 5880 5880 5880 5879 5879 5878 5878 5877 5876 5874 5873 5871 5869 5867 5865 5863 5860 5858 5856 5853 5851 5848 5846 5843 5841 5838
5836 5840 5844 5847 5850 5853 5857 5859 5863 5865 5867 5869 5870 5872 5873 5874 5875 5876 5877 5877 5878 5879 5879 5879 5880 5880 5879 5879 5878 5878 5877 5876 5874 5873 5871 5869 5867 5865 5863 5861 5858 5856 5854 5851 5849 5846 5844 5842 5840
5835 5839 5844 5847 5849 5852 5855 5857 5862 5863 5865 5867 5868 5870 5871 5873 5874 5875 5876 5876 5877 5878 5879 5879 5879 5879 5879 5879 5878 5878 5877 5876 5874 5873 5871 5870 5868 5865 5863 5861 5858 5856 5853 5851 5849 5847 5845 5843 5841
5834 5838 5842 5846 5849 5851 5854 5857 5860 5862 5863 5865 5867 5869 5870 5871 5872 5873 5874 5875 5876 5877 5878 5879 5879 5879 5879 5879 5878 5877 5876 5875 5874 5873 5871 5869 5867 5865 5863 5860 5858 5855 5853 5850 5848 5847 5845 5843 5841
5834 5837 5841 5844 5847 5850 5853 5856 5859 5860 5862 5864 5866 5867 5868 5870 5871 5872 5873 5874 5875 5876 5877 5878 5878 5878 5878 5878 5878 5877 5876 5875 5874 5872 5871 5869 5867 5864 5862 5859 5857 5854 5852 5849 5848 5846 5844 5842 5841
5833 5836 5839 5842 5846 5849 5851 5857 5857 5859 5861 5863 5864 5866 5867 5868 5869 5870 5872 5873 5874 5875 5876 5876 5877 5877 5877 5877 5877 5876 5875 5874 5873 5871 5870 5868 5866 5863 5861 5858 5855 5853 5850 5848 5846 5845 5843 5841 5840
5832 5836 5839 5842 5845 5847 5850 5856 5856 5858 5859 5861 5863 5864 5865 5866 5868 5869 5870 5871 5872 5873 5874 5875 5875 5875 5875 5875 5875 5874 5874 5873 5871 5870 5868 5866 5864 5862 5859 5856 5854 5851 5849 5847 5845 5843 5842 5840 5838